Location: Ferintosh
(52.7647°N, 112.9692°W)
Time: 19:06:15
(UTC+00:00)

A-11 Canister half - Pass Details

Date: 30 May 2024
Orbit: 1515 x 1685 km, 47.2° (Epoch: 12 June)

Event Time Altitude Azimuth Distance (km) Brightness Sun altitude
Rises 12:06:25 0° 277° (W) 4,743 11.1 5.6°
Reaches altitude 10° 12:09:37 10° 273° (W) 3,738 10.5 6.0°
Maximum altitude 12:18:34 52° 201° (SSW) 1,841 9.3 7.2°
Drops below altitude 10° 12:27:22 10° 129° (SE) 3,670 11.4 8.4°
Sets 12:30:28 0° 124° (SE) 4,652 12.0 8.8°
